Hourly Data Report for October 11, 2016

All times are specified in Local Standard Time (LST). Add 1 hour to adjust for Daylight Saving Time where and when it is observed.

GJOA HAVEN A
NUNAVUT

68°38'08.000" N
95°51'01.000" W
46.90 m
2302337
71597
YHK

Related Data

No related data is available for this station

Download Data

Hourly Data (October 2016)
Hourly Data Report for October 11, 2016
Temp Definition
°C
Dew Point Temp Definition
°C
Rel Hum Definition
%
Wind Dir Definition
10's deg

Wind Spd Definition
km/h
Visibility Definition
km
Stn Press Definition
kPa
Hmdx Definition


Wind Chill Definition


Weather Definition


TIME
00:00 Legend Double Dagger -4.2 -4.3 99 18 8 8.1 100.25   -8 Snow
01:00 Legend Double Dagger -3.9 -4.2 98 15 9 14.5 100.23   -8 Snow
02:00 Legend Double Dagger -3.8 -4.2 97 14 13 16.1 100.23   -9 Snow
03:00 Legend Double Dagger -3.3 -3.7 97 14 17 3.2 100.22   -9 Snow
04:00 Legend Double Dagger -3.2 -3.6 97 13 15 11.3 100.23   -8 Snow
05:00 Legend Double Dagger -3.4 -4.2 94 11 22 6.4 100.23   -10 Snow
06:00 Legend Double Dagger -3.0 -3.8 94 10 24 6.4 100.24   -10 Snow
07:00 Legend Double Dagger -2.7 -4.2 89 10 28 16.1 100.25   -10 Snow
08:00 Legend Double Dagger -2.8 -3.6 94 8 26 16.1 100.28   -10 Snow
09:00 Legend Double Dagger -2.1 -4.5 84 11 18 16.1 100.33   -8 LegendNANA
10:00 Legend Double Dagger -2.5 -4.5 86 12 15 16.1 100.37   -7 LegendNANA
11:00 Legend Double Dagger -2.1 -5.3 79 12 15 16.1 100.40   -7 LegendNANA
12:00 Legend Double Dagger -3.1 -4.5 90 9 28 16.1 100.44   -10 LegendNANA
13:00 Legend Double Dagger -3.6 -5.0 90 7 28 16.1 100.48   -11 LegendNANA
14:00 Legend Double Dagger -4.3 -5.6 91 7 26 16.1 100.52   -12 LegendNANA
15:00 Legend Double Dagger -4.9 -6.3 90 7 26 16.1 100.57   -12 LegendNANA
16:00 Legend Double Dagger -5.1 -7.2 85 6 28 16.1 100.59   -13 LegendNANA
17:00 Legend Double Dagger -6.0 -8.6 82 6 28 16.1 100.62   -14 LegendNANA
18:00 Legend Double Dagger -6.4 -8.7 84 5 28 16.1 100.64   -15 LegendNANA
19:00 Legend Double Dagger -6.5 -8.8 84 5 30 16.1 100.64   -15 LegendNANA
20:00 Legend Double Dagger -6.9 -9.4 82 3 28 16.1 100.65   -15 LegendNANA
21:00 Legend Double Dagger -7.2 -9.8 82 4 24 16.1 100.65   -15 LegendNANA
22:00 Legend Double Dagger -7.4 -10.4 79 5 22 16.1 100.67   -15 LegendNANA
23:00 Legend Double Dagger -7.1 -9.8 81 5 22 16.1 100.66   -15 LegendNANA

Notes on Data Quality.

Legend

  • E = Estimated
  • M = Missing
  • NA = Not Available
  • ‡ = Partner data that is not subject to review by the National Climate Archives
Date modified: